CZ-4B R/B - Orbit

View from above orbital plane
View from above orbital plane
View from above satellite
View from above satellite

Ground track
Ground track

The orbit data is extracted from the following two-line orbital elements,

1 29093U 06015B   13144.18490497  .00009920  00000-0  42059-3 0   242
2 29093 097.5597 218.2257 0103176 177.5279 267.4703 15.18526881390455
Epoch (UTC): 24 May 2013 04:26:15
Eccentricity: 0.0103176
inclination: 97.5597°
perigee height: 439 km
apogee height: 581 km
right ascension of ascending node: 218.2257°
argument of perigee: 177.5279°
revolutions per day: 15.18526881
mean anomaly at epoch: 267.4703°
orbit number at epoch: 39045

The dashed part of the orbit path shows where the satellite is in the earth's shadow,  

Developed and maintained by Chris Peat, Heavens-Above GmbH. Please read the updated FAQ before sending e-mail. Imprint. DLR